sat.trackr.live / text

‹ back to catalog

SITRO-AIS 6 (CHIRKIN)

NORAD 57192 · 2023-091AC

PAYLOAD ACTIVE UNKNOWN

§ Identity

Operator
Country
CIS
Launch date
2023-06-27
Launch site
VOSTO
Launch vehicle
Mass (kg)
RCS (m²)

Purposes: tech_demo

External: N2YO · Heavens-Above · Gunter

§ Orbital elements

Epoch: 2026-09-19T22:51:57.830688Z

Period
94.27 min
Inclination
97.4971°
Eccentricity
0.0012362
Mean motion
15.27467606 rev/d
Perigee alt
474.9 km
Apogee alt
491.9 km
Semi-major
6,861.5 km
B*
2.4950e-4
RAAN
326.4254°
Arg perigee
128.5537°
Mean anomaly
231.6812°
Rev number
17,874

§ Raw data

SITRO-AIS 6 (CHIRKIN)1 57192U 23091AC  26262.95275267  .00006645  00000+0  24950-3 0  99932 57192  97.4971 326.4254 0012362 128.5537 231.6812 15.27467606178748

JSON: /api/v1/satellites/57192 · /tle

For live sub-satellite position, see the globe view (requires WebGL).

§ Visibility from observer

Set your observer location to see the next 7 days of passes ≥ 10°. The values pass through the URL so the page stays shareable.

No JS? Fill the form by hand. The geolocation button needs JavaScript.

§ Radio — SatNOGS DB

ModeDescriptionDownlinkUplink
GMSK USP Mode U - GMSK USP 2K4 TLM 401.170 MHz

1 transmitter · refreshed weekly from db.satnogs.org